BREEZE-M DEB, 34247

Orbit data source: Space-Track

BREEZE-M DEB, 34247 is space debris in HEO originally from a launch on Tue, 28 Feb 2006 UTC launched from the Tyuratam Missile And Space Complex (TTMTR). Debris objects in space refer to the collection of defunct objects orbiting the Earth. Examples of debris include non-operational satellites, rocket bodies, and fragments generated from explosions, collisions, or faulty payload assembly.

Loading next visibility...
Identifier
34247, 2006-006BN
Orbit
HEO
Country
Flag of CISCIS
Related business
Manufacturer
Khrunichev
Mission
Spacecraft
Bus & Motor
Unknown
Mass
Unknown
Launch date (UTC)
2006-02-28 (20 years ago)
Launch vehicle
Unknown
Launch site
Tyuratam Missile And Space Complex (TTMTR)
Object type
Payload
Rocket body
Debris
Shape & HBR
Unknown shape, 0.1 m
Radar Cross Section
Medium (>0.1 m² and <1 m²)

Expand to show TLE details & history
Last TLE update: 7 months ago

TLE from 7 months ago
0 BREEZE-M DEB
1 34247U 06006BN  25328.95072718  .00006534  00000-0  91087-2 0  9996
2 34247  52.0628 205.7583 4849180 225.6092  82.7814  5.63370186 12715
Epoch: 2025-11-24T22:49Z
TLE epoch observation values (Epoch: 2025-11-24T22:49:02.828Z)
Latitude
-0.00002°
Longitude
159.35915°
Altitude
9,072.667 km
Speed
4.661 km/s
True Right ascension
13h 43m 03s
True Declination
0° 00' 00"
Sunlit
Object was in daylight at epoch
Visualization orbit readout
Latitude
Unknown
Longitude
Unknown
Altitude
Unknown
Speed
Unknown
Apparent Right ascension
Unknown
Apparent Declination
Unknown
Sunlit
N/A
Visualization observer readout
Local Sidereal Time
18:33:07
Azimuth
Unknown
Elevation
Unknown
Doppler factor
Unknown
Orbital elements
Apogee altitude
13,433.457 km
Perigee altitude
494.024 km
Semi-major axis
13,341.878 km
Eccentricity
0.48492
Inclination
52.0628°
RAAN
205.7583°
Arg. of periapsis
225.6092°
True anomaly
134.45879°
Mean anomaly
82.7814°
Eccentric anomaly
109.04443°
Mean motion
1.40837 °/min
Orbital period
255.61 mins
BSTAR
0.0091087
Loading maneuver chart data...
Computing Atmospheric mass density...
Loading historical data...
Loading historical data...
Loading historical data...
Loading historical data...
Loading historical data...
Loading historical data...
Loading historical data...

Documentation

Showing up to 5 results
|